[[{"header":{"parameterUnit":"m.s-1","parameterCategory":1,"la1":30.2991,"la2":30.254,"lo1":-89.0895,"lo2":-89.0444,"dy":0.0017,"dx":0.0017,"nx":28,"ny":28,"refTime":"2025-04-10T21:00:00:Z","depth":0,"parameterNumber":2,"parameterNumberName":"U-component_of_WINDS"},"data":[0,0,0,0,0,0,0,0,0,0,0,0,0,0,0,0,0,0,0,0,0,0,0,0,0,0,0,0,0,0,0,0,0,0,0,0,0,0,0,0,0,0,0,0,0,0,0,0,0,0,0,0,0,0,0,0,0,0,0.9237,0.9238,0,0.9317,0.9318,0.9319,0.9355,0.9355,0.9355,0.9355,0.944,0.9442,0.9444,0,0,0,0,0,0,0,0,0,0,0,0,0,0.9117,0.9119,0.9237,0.9238,0.9239,0.9317,0.9318,0.9319,0.9355,0.9355,0.9355,0.9355,0.9439,0.9442,0.9444,0,0,0,0,0,0,0,0,0,0,0,0,0,0.9181,0.912,0.9237,0.9266,0.927,0.9317,0.9318,0.932,0.9355,0.9355,0.9355,0.9355,0.9438,0.9441,0.9445,0.9469,0,0,0.9456,0.9457,0,0,0,0,0,0,0,0,0.9177,0.9185,0.9261,0.9264,0.9268,0.9326,0.9307,0.937,0.9355,0.9323,0.9355,0.9355,0.9402,0.9409,0.9424,0.9473,0.9477,0.9456,0.9458,0.9459,0.946,0,0,0,0,0,0,0,0.9173,0.9182,0.9269,0.9262,0.9266,0.9276,0.9285,0.9319,0.9362,0.9326,0.9329,0.9337,0.9404,0.9421,0.9426,0.9478,0.9456,0.9459,0.9461,0.9462,0.9553,0.9553,0,0,0,0,0,0,0.9163,0.9178,0.9266,0.9271,0.9221,0.9279,0.9289,0.9308,0.9362,0.937,0.9337,0.9339,0.9415,0.9422,0.9429,0.9462,0.9459,0.9463,0.9465,0.9553,0.9553,0.9553,0,0,0,0,0,0,0.916,0.9171,0.9263,0.9225,0.9238,0.9281,0.9302,0.9309,0.9326,0.9371,0.9379,0.9346,0.9415,0.9424,0.9459,0.9466,0.9464,0.9467,0.9552,0.9553,0.9553,0.9528,0,0,0,0,0,0,0.9157,0.9169,0.9178,0.9225,0.924,0.929,0.9302,0.9311,0.9332,0.9334,0.9381,0.9389,0.9415,0.9454,0.9463,0.9471,0.947,0.9552,0.9553,0.9553,0.9528,0.9527,0.9527,0,0,0,0,0,0.9152,0.9168,0.9179,0.9189,0.9252,0.9291,0.9299,0.9329,0.9332,0.9342,0.9371,0.9387,0.9464,0.9457,0.9467,0.9476,0.9552,0.9552,0.9553,0.9529,0.9528,0.9527,0,0,0,0,0,0,0.9121,0.9175,0.9187,0.9218,0.925,0.9297,0.931,0.9326,0.9358,0.9359,0.9395,0.9405,0.9437,0.9461,0.9452,0.9504,0.9509,0.9512,0.9487,0.9487,0.9486,0.9479,0.9473,0,0,0,0,0,0.9118,0.9145,0.919,0.9214,0.9229,0.9267,0.9285,0.9305,0.9339,0.9353,0.9384,0.9418,0.9449,0.9469,0.9501,0.9532,0.9543,0.9544,0.9543,0.9542,0.9544,0.9563,0.9564,0.9556,0.9556,0.9556,0,0,0.9112,0.9144,0.9159,0.9208,0.9235,0.9262,0.9277,0.9306,0.9327,0.9357,0.9392,0.9416,0.9456,0.9489,0.9506,0.951,0.9548,0.9543,0.9541,0.9544,0.9564,0.9564,0.9565,0.9556,0.9556,0.9556,0,0,0.9115,0.9141,0.9164,0.9191,0.9231,0.9256,0.9261,0.9306,0.9324,0.9359,0.9383,0.9409,0.9462,0.9489,0.951,0.9525,0.9541,0.9534,0.9529,0.9548,0.9548,0.9549,0.9555,0.9556,0.9536,0.9536,0.9536,0,0.9102,0.9143,0.9174,0.9201,0.9222,0.9251,0.9275,0.9299,0.9348,0.9362,0.9366,0.9434,0.9463,0.9503,0.9507,0.9523,0.9531,0.9528,0.9546,0.9547,0.9548,0.9554,0.9556,0.9535,0.9535,0.9535,0.9535,0,0.9126,0.9155,0.9168,0.9214,0.9237,0.9262,0.9298,0.9318,0.9336,0.9361,0.9398,0.9433,0.9473,0.9484,0.9502,0.9527,0.9529,0.9538,0.9545,0.9547,0.9553,0.9555,0.9533,0.9533,0.9534,0.9534,0,0,0.9111,0.9173,0.9178,0.9199,0.9246,0.9269,0.9296,0.9335,0.9351,0.9384,0.9408,0.9453,0.9463,0.9487,0.9509,0.9525,0.9535,0.9533,0.9535,0.9532,0.9565,0.9558,0.9559,0.9546,0.9546,0.9547,0.9562,0,0.912,0.9169,0.9198,0.9235,0.9263,0.9291,0.9315,0.9346,0.9371,0.9399,0.9426,0.9458,0.9468,0.9482,0.95,0.953,0.9542,0.9529,0.957,0.9571,0.9559,0.9563,0.9554,0.9567,0.9565,0.9565,0.9565,0,0.9137,0.9168,0.9208,0.9253,0.9266,0.9286,0.9324,0.935,0.9387,0.9404,0.9431,0.9453,0.9484,0.9488,0.9532,0.9522,0.9541,0.9559,0.956,0.9565,0.9568,0.9568,0.9572,0.9573,0.9569,0.9569,0.9569,0,0.9122,0.9175,0.9206,0.9223,0.9276,0.929,0.9313,0.935,0.9371,0.9405,0.9419,0.9456,0.9476,0.9504,0.9536,0.9536,0.9577,0.9584,0.9593,0.9592,0.96,0.9599,0.9607,0.9612,0.9612,0.9612,0.9612,0,0.9129,0.9152,0.92,0.9219,0.9247,0.928,0.9307,0.9332,0.9365,0.939,0.9417,0.9441,0.9481,0.951,0.9535,0.9568,0.9577,0.9592,0.9599,0.959,0.9588,0.9602,0.9602,0.9612,0.9612,0.9612,0.9612,0,0.9117,0.9149,0.9185,0.9232,0.9244,0.9263,0.9304,0.9324,0.935,0.9382,0.9391,0.9433,0.9468,0.9503,0.955,0.9567,0.96,0.9609,0.9587,0.9591,0.9598,0.9597,0.9615,0.962,0.9621,0.9621,0.9621,0,0.9119,0.9138,0.9187,0.9205,0.9227,0.9257,0.9279,0.9313,0.9335,0.9379,0.9395,0.9432,0.9463,0.9519,0.9554,0.959,0.96,0.9604,0.9606,0.9597,0.9601,0.9599,0.9601,0.9603,0.9603,0.9603,0.9603,0,0.912,0.9135,0.9165,0.9201,0.9227,0.9257,0.9288,0.9302,0.9343,0.9367,0.9403,0.9427,0.9476,0.9513,0.9554,0.9578,0.9598,0.9602,0.9606,0.9597,0.9584,0.9591,0.9585,0.9601,0.9601,0.9601,0.9602,0.9602,0.9115,0.9133,0.9171,0.9204,0.9231,0.926,0.9281,0.931,0.9341,0.9382,0.9401,0.9438,0.9476,0.9533,0.9557,0.9587,0.9592,0.9598,0.96,0.96,0.9599,0.9579,0.9595,0.9595,0.9595,0.9595,0.9595,0,0.9117,0.9143,0.9173,0.9216,0.9242,0.9258,0.9293,0.9315,0.9346,0.938,0.941,0.9452,0.9489,0.9527,0.9565,0.9582,0.9592,0.9591,0.959,0.9596,0.9592,0.9585,0.9582,0.9582,0.9582,0.9582,0.9582,0.9582,0.9122,0.9154,0.9174,0.922,0.9246,0.9281,0.93,0.9327,0.9354,0.94,0.943,0.9454,0.949,0.9532,0.9566,0.9577,0.959,0.9586,0.9599,0.9595,0.9596,0.9597,0.959,0.9589,0.9589,0.96,0.9601,0.9601]},{"header":{"parameterUnit":"m.s-1","parameterCategory":1,"la1":30.2991,"la2":30.254,"lo1":-89.0895,"lo2":-89.0444,"dy":0.0017,"dx":0.0017,"nx":28,"ny":28,"refTime":"2025-04-10T21:00:00:Z","depth":0,"parameterNumber":3,"parameterNumberName":"V-component_of_WINDS"},"data":[0,0,0,0,0,0,0,0,0,0,0,0,0,0,0,0,0,0,0,0,0,0,0,0,0,0,0,0,0,0,0,0,0,0,0,0,0,0,0,0,0,0,0,0,0,0,0,0,0,0,0,0,0,0,0,0,0,0,-2.1858,-2.1858,0,-2.1882,-2.1883,-2.1883,-2.1913,-2.1913,-2.1914,-2.1914,-2.1935,-2.1935,-2.1935,0,0,0,0,0,0,0,0,0,0,0,0,0,-2.1836,-2.1836,-2.1858,-2.1858,-2.1859,-2.1882,-2.1883,-2.1883,-2.1913,-2.1913,-2.1914,-2.1914,-2.1935,-2.1935,-2.1935,0,0,0,0,0,0,0,0,0,0,0,0,0,-2.1851,-2.1836,-2.1858,-2.1876,-2.1878,-2.1882,-2.1883,-2.1883,-2.1912,-2.1913,-2.1914,-2.1915,-2.1935,-2.1935,-2.1935,-2.1922,0,0,-2.1936,-2.1936,0,0,0,0,0,0,0,0,-2.185,-2.1852,-2.1873,-2.1875,-2.1877,-2.1895,-2.1883,-2.1896,-2.1912,-2.1899,-2.1914,-2.1915,-2.1921,-2.1922,-2.1925,-2.1923,-2.1924,-2.1936,-2.1936,-2.1936,-2.1936,0,0,0,0,0,0,0,-2.1849,-2.1851,-2.1868,-2.1874,-2.1876,-2.1883,-2.1886,-2.1885,-2.1906,-2.1901,-2.1903,-2.1905,-2.1922,-2.1925,-2.1926,-2.1924,-2.1936,-2.1936,-2.1936,-2.1936,-2.1916,-2.1915,0,0,0,0,0,0,-2.1846,-2.185,-2.1867,-2.1868,-2.1865,-2.1883,-2.1886,-2.1889,-2.1906,-2.1909,-2.1905,-2.1907,-2.1924,-2.1926,-2.1927,-2.1915,-2.1936,-2.1936,-2.1936,-2.1916,-2.1916,-2.1915,0,0,0,0,0,0,-2.1845,-2.1847,-2.1866,-2.186,-2.1863,-2.1882,-2.1885,-2.1889,-2.1892,-2.1909,-2.1913,-2.1904,-2.1925,-2.1927,-2.1924,-2.1916,-2.1936,-2.1936,-2.1917,-2.1916,-2.1915,-2.1889,0,0,0,0,0,0,-2.1844,-2.1847,-2.1842,-2.186,-2.1863,-2.1863,-2.1885,-2.1889,-2.1892,-2.1895,-2.1909,-2.1912,-2.1926,-2.1924,-2.1924,-2.1916,-2.1937,-2.1918,-2.1917,-2.1916,-2.1891,-2.1887,-2.1884,0,0,0,0,0,-2.1843,-2.1832,-2.1841,-2.1843,-2.1858,-2.1862,-2.1864,-2.1881,-2.1892,-2.1887,-2.1899,-2.1912,-2.1917,-2.1923,-2.1924,-2.1916,-2.1919,-2.1917,-2.1916,-2.1892,-2.1888,-2.1884,0,0,0,0,0,0,-2.181,-2.1834,-2.1845,-2.1839,-2.1849,-2.1867,-2.1862,-2.1875,-2.1881,-2.1883,-2.1903,-2.1906,-2.1901,-2.1908,-2.1915,-2.1906,-2.192,-2.1918,-2.1901,-2.1898,-2.1894,-2.1893,-2.1937,0,0,0,0,0,-2.1803,-2.1805,-2.1826,-2.1818,-2.1823,-2.1842,-2.1844,-2.1857,-2.1867,-2.1871,-2.1882,-2.1891,-2.1895,-2.1896,-2.19,-2.1892,-2.1896,-2.1887,-2.1884,-2.1881,-2.188,-2.1879,-2.1875,-2.191,-2.191,-2.191,0,0,-2.1786,-2.1799,-2.1799,-2.1812,-2.1821,-2.1824,-2.1845,-2.1845,-2.1848,-2.187,-2.187,-2.1879,-2.189,-2.1885,-2.1883,-2.1891,-2.1872,-2.1879,-2.1877,-2.1877,-2.1877,-2.1873,-2.187,-2.1909,-2.1909,-2.191,0,0,-2.1757,-2.1767,-2.1764,-2.1773,-2.1787,-2.1801,-2.18,-2.1817,-2.1825,-2.1825,-2.1843,-2.1845,-2.1851,-2.1859,-2.1863,-2.1842,-2.1855,-2.1842,-2.1826,-2.1824,-2.1822,-2.1819,-2.1813,-2.1811,-2.1841,-2.1841,-2.1841,0,-2.1734,-2.174,-2.1759,-2.1761,-2.1766,-2.179,-2.1787,-2.1794,-2.1808,-2.1812,-2.182,-2.183,-2.1839,-2.1838,-2.1833,-2.1835,-2.1836,-2.1841,-2.182,-2.1818,-2.1816,-2.1811,-2.1808,-2.184,-2.184,-2.184,-2.184,0,-2.1712,-2.1715,-2.1711,-2.1727,-2.1732,-2.1731,-2.1751,-2.1753,-2.1766,-2.1779,-2.1779,-2.1791,-2.18,-2.18,-2.1811,-2.1802,-2.1806,-2.1817,-2.1831,-2.1811,-2.1807,-2.1805,-2.1837,-2.1838,-2.1838,-2.1839,0,0,-2.1661,-2.1691,-2.1689,-2.1698,-2.1717,-2.172,-2.172,-2.1731,-2.1734,-2.1743,-2.1745,-2.1751,-2.1762,-2.1768,-2.178,-2.1779,-2.1763,-2.179,-2.1791,-2.1786,-2.1756,-2.1748,-2.1745,-2.1772,-2.1772,-2.1772,-2.1755,0,-2.1637,-2.1641,-2.1661,-2.1659,-2.1663,-2.1687,-2.1688,-2.17,-2.1712,-2.1717,-2.173,-2.1735,-2.1748,-2.1753,-2.1752,-2.1765,-2.1758,-2.1767,-2.1774,-2.1774,-2.1772,-2.1742,-2.1734,-2.1717,-2.1753,-2.1753,-2.1753,0,-2.1609,-2.162,-2.1619,-2.1642,-2.1644,-2.1645,-2.1657,-2.1662,-2.1676,-2.1685,-2.1693,-2.1709,-2.1711,-2.1725,-2.1729,-2.1735,-2.1739,-2.1746,-2.1746,-2.1748,-2.1763,-2.1744,-2.1712,-2.1711,-2.175,-2.175,-2.175,0,-2.1575,-2.1589,-2.1592,-2.1598,-2.1623,-2.1623,-2.1634,-2.1649,-2.1655,-2.1666,-2.167,-2.168,-2.1685,-2.1693,-2.1711,-2.1719,-2.1714,-2.1728,-2.1722,-2.1721,-2.1719,-2.1719,-2.1689,-2.1721,-2.1721,-2.1721,-2.1721,0,-2.1546,-2.1545,-2.1577,-2.1578,-2.1579,-2.1601,-2.1601,-2.1613,-2.1627,-2.1631,-2.1651,-2.1655,-2.1678,-2.1684,-2.1698,-2.17,-2.1702,-2.171,-2.1714,-2.1709,-2.1708,-2.1712,-2.1714,-2.172,-2.172,-2.172,-2.172,0,-2.1508,-2.1529,-2.1533,-2.1558,-2.1564,-2.1563,-2.1584,-2.1587,-2.1602,-2.1607,-2.1609,-2.1632,-2.1641,-2.1659,-2.1672,-2.1681,-2.1681,-2.1687,-2.1677,-2.168,-2.1673,-2.1674,-2.1644,-2.1643,-2.1674,-2.1674,-2.1674,0,-2.1489,-2.1489,-2.1515,-2.1521,-2.1531,-2.1539,-2.1546,-2.1569,-2.1575,-2.1594,-2.1594,-2.1605,-2.1615,-2.1628,-2.1645,-2.1655,-2.1663,-2.1652,-2.1664,-2.166,-2.1664,-2.1665,-2.1666,-2.1649,-2.1649,-2.1648,-2.1648,0,-2.1453,-2.1465,-2.1475,-2.149,-2.1499,-2.151,-2.1523,-2.1527,-2.1552,-2.1559,-2.1569,-2.1577,-2.1593,-2.1603,-2.1617,-2.1627,-2.1642,-2.1644,-2.1644,-2.1639,-2.1633,-2.1638,-2.1671,-2.1644,-2.1645,-2.1645,-2.1645,-2.1645,-2.1425,-2.1428,-2.1448,-2.1459,-2.1472,-2.1485,-2.1489,-2.1506,-2.1515,-2.1531,-2.1543,-2.1553,-2.157,-2.1591,-2.16,-2.1608,-2.1615,-2.1613,-2.1613,-2.1613,-2.1612,-2.1632,-2.161,-2.161,-2.161,-2.1611,-2.1611,0,-2.1392,-2.1407,-2.1418,-2.1437,-2.1447,-2.1462,-2.1478,-2.1484,-2.1494,-2.1508,-2.1519,-2.1532,-2.1544,-2.1563,-2.1576,-2.1579,-2.1586,-2.1581,-2.1582,-2.1584,-2.1604,-2.1604,-2.1575,-2.1575,-2.1575,-2.1575,-2.1575,-2.1575,-2.1377,-2.1383,-2.1397,-2.141,-2.1424,-2.1436,-2.1444,-2.1456,-2.1469,-2.1483,-2.1494,-2.1507,-2.1524,-2.1539,-2.155,-2.1556,-2.156,-2.1554,-2.1561,-2.1579,-2.1582,-2.1586,-2.1586,-2.1554,-2.1554,-2.1541,-2.1541,-2.1541]}]]